Location: Unspecified
(43.4354°N, 0.0000°E)
Time: 17:17:17
(UTC+00:00)

Transit 2A - Pass Details

Date: 22 June 2019
Orbit: 594 x 964 km, 66.7° (Epoch: 21 July)

Event Time Altitude Azimuth Distance (km) Brightness Sun altitude
Rises 07:26:07 0° 334° (NNW) 3,503 9.2 30.8°
Reaches altitude 10° 07:29:24 10° 351° (N) 2,496 8.7 31.4°
Maximum altitude 07:33:35 20° 38° (NE) 1,784 8.7 32.2°
Drops below altitude 10° 07:37:29 10° 85° (E) 2,302 10.0 32.9°
Sets 07:40:22 0° 103° (ESE) 3,151 10.2 33.4°
